TimeEST,TemperatureF,Dew PointF,Humidity,Sea Level PressureIn,VisibilityMPH,Wind Direction,Wind SpeedMPH,Gust SpeedMPH,PrecipitationIn,Events,Conditions,WindDirDegrees,DateUTC
12:24 AM,5.0,-2.2,72,29.68,3.0,WNW,13.8,19.6,0.00,,Overcast,290,2004-01-17 05:24:00
12:37 AM,5.0,-2.2,72,29.68,2.5,WNW,13.8,25.3,0.00,,Overcast,300,2004-01-17 05:37:00
12:52 AM,5.0,-0.9,76,29.77,1.8,WNW,16.1,28.8,0.00,,Overcast,300,2004-01-17 05:52:00
1:05 AM,5.0,-0.4,78,29.69,1.2,WNW,16.1,25.3,0.00,,Overcast,300,2004-01-17 06:05:00
1:18 AM,5.0,-0.4,78,29.70,0.8,WNW,19.6,31.1,0.00,Snow,Light Snow,290,2004-01-17 06:18:00
1:42 AM,5.0,-0.4,78,29.70,1.0,WNW,16.1,28.8,0.00,Snow,Light Snow,290,2004-01-17 06:42:00
1:52 AM,5.0,-0.0,80,29.79,1.0,WNW,15.0,25.3,0.00,Snow,Light Snow,290,2004-01-17 06:52:00
2:42 AM,5.0,-0.4,78,29.74,1.0,WNW,10.4,21.9,0.00,Snow,Light Snow,290,2004-01-17 07:42:00
2:52 AM,5.0,-0.0,80,29.83,1.0,WNW,11.5,21.9,0.00,Snow,Light Snow,290,2004-01-17 07:52:00
3:00 AM,6.8,-0.4,72,29.74,0.8,West,11.5,23.0,0.00,Snow,Light Snow,280,2004-01-17 08:00:00
3:10 AM,6.8,-0.4,72,29.74,1.0,West,12.7,20.7,0.00,Snow,Light Snow,270,2004-01-17 08:10:00
3:52 AM,6.1,-0.0,76,29.84,1.5,West,9.2,-,0.00,Snow,Light Snow,260,2004-01-17 08:52:00
4:08 AM,6.8,-0.4,72,29.75,2.0,West,9.2,-,0.00,,Haze,280,2004-01-17 09:08:00
4:28 AM,6.8,-0.4,72,29.76,4.0,West,8.1,-,0.00,,Haze,260,2004-01-17 09:28:00
4:52 AM,6.1,-0.0,76,29.86,4.0,SW,5.8,-,0.00,,Haze,230,2004-01-17 09:52:00
5:52 AM,5.0,-2.0,73,29.89,6.0,WNW,4.6,-,N/A,,Haze,300,2004-01-17 10:52:00
6:52 AM,3.9,-2.9,73,29.90,10.0,NNW,8.1,-,N/A,,Overcast,330,2004-01-17 11:52:00
7:40 AM,3.2,-4.0,72,29.83,10.0,Variable,3.5,-,N/A,,Scattered Clouds,0,2004-01-17 12:40:00
7:52 AM,3.0,-4.0,73,29.93,10.0,Variable,3.5,-,N/A,,Clear,0,2004-01-17 12:52:00
8:29 AM,5.0,-2.2,72,29.87,10.0,Variable,5.8,-,N/A,,Mostly Cloudy,0,2004-01-17 13:29:00
8:52 AM,5.0,-2.9,70,29.97,8.0,NW,10.4,16.1,N/A,,Overcast,310,2004-01-17 13:52:00
9:40 AM,6.8,-2.2,67,29.91,10.0,West,9.2,20.7,N/A,,Scattered Clouds,280,2004-01-17 14:40:00
9:52 AM,8.1,-2.0,64,30.00,10.0,West,12.7,20.7,N/A,,Clear,270,2004-01-17 14:52:00
10:52 AM,9.0,-0.9,64,30.00,10.0,WNW,11.5,19.6,N/A,,Clear,290,2004-01-17 15:52:00
11:52 AM,10.9,-0.9,59,29.96,10.0,West,8.1,-,N/A,,Clear,270,2004-01-17 16:52:00
12:52 PM,12.9,-0.0,56,29.93,10.0,West,10.4,-,N/A,,Clear,280,2004-01-17 17:52:00
1:52 PM,16.0,1.9,54,29.92,10.0,WNW,6.9,-,0.00,,Clear,300,2004-01-17 18:52:00
2:52 PM,17.1,1.9,52,29.93,10.0,NW,9.2,-,N/A,,Clear,310,2004-01-17 19:52:00
3:52 PM,16.0,3.0,57,29.93,10.0,Variable,3.5,-,N/A,,Clear,0,2004-01-17 20:52:00
4:52 PM,12.0,1.9,64,29.93,10.0,NNW,5.8,-,N/A,,Clear,330,2004-01-17 21:52:00
5:52 PM,12.0,1.9,64,29.92,10.0,NNE,3.5,-,N/A,,Clear,20,2004-01-17 22:52:00
6:52 PM,5.0,1.0,84,29.94,10.0,Calm,Calm,-,N/A,,Clear,0,2004-01-17 23:52:00
7:52 PM,-0.9,-6.0,79,29.95,10.0,Calm,Calm,-,N/A,,Clear,0,2004-01-18 00:52:00
8:52 PM,-0.9,-5.1,83,29.94,10.0,Calm,Calm,-,N/A,,Clear,0,2004-01-18 01:52:00
9:52 PM,1.9,-0.9,88,29.92,10.0,SSW,3.5,-,N/A,,Mostly Cloudy,210,2004-01-18 02:52:00
10:52 PM,3.9,-0.0,84,29.89,10.0,Calm,Calm,-,N/A,,Overcast,0,2004-01-18 03:52:00
11:52 PM,5.0,1.0,84,29.86,10.0,Calm,Calm,-,N/A,,Overcast,0,2004-01-18 04:52:00